Flag Weather past 2 weeks in Offenburg, Baden-Württemberg, Germany

Now
45 °F

Fog.


Feels Like: 43 °F
Forecast: 43 / 56 °F
Wind: 3 mph from North

Location: Lahr - CAN-AFB

Current Time: Nov 22, 2014 at 6:13:50 PM

Latest Report: Nov 22, 2014 at 5:50 PM


Visibility: 0 mi

Pressure: 30.12 "Hg

Humidity: 100%

Dew point: 45 °F

Location of OffenburgLocation

Historic Weather in Offenburg — Graph

°F

Offenburg temperature yesterday

Maximum temperature yesterday: 50 °F (at 11:20 AM)
Minimum temperature yesterday: 43 °F (at 7:50 AM)
Average temperature yesterday: 46 °F

Past Weeks' High & Low Weather Summary

 TemperatureHumidityPressure
High55 °F (Nov 16, 12:50 PM)100% (Nov 10, 8:20 AM)30.30 "Hg (Nov 10, 8:20 AM)
Low37 °F (Nov 20, 7:20 AM)67% (Nov 16, 12:50 PM)29.59 "Hg (Nov 15, 3:50 PM)
Average47 °F91%29.88 "Hg
* Reported Nov 7 4:20 PM — Nov 22 4:50 PM, Offenburg, Weather by CustomWeather, © 2014

Note: Actual official high and low records may vary slightly from our data, if they occured in-between our weather recording intervals... More about our weather records

Advertising

Offenburg weather history for previous 24 hours

 ConditionsComfort  
Time TempWeatherWind HumidityBarometerVisibility
4:50 PM
Nov 22
43 °FFog.3 mph100%30.15 "Hg0 mi
4:20 PM43 °FFog.3 mph100%30.12 "Hg0 mi
3:50 PM43 °FFog.2 mph100%30.12 "Hg0 mi
2:20 PM43 °FFog.1 mph100%30.15 "Hg1 mi
1:50 PM43 °FFog.2 mph100%30.15 "Hg0 mi
1:20 PM43 °FFog.2 mph100%30.15 "Hg0 mi
12:50 PM43 °FFog.2 mph100%30.15 "Hg0 mi
12:20 PM43 °FFog.2 mph100%30.15 "Hg0 mi
11:50 AM41 °FFog.2 mph100%30.15 "Hg0 mi
11:20 AM41 °FFog.1 mph100%30.15 "Hg0 mi
10:50 AM41 °FFog.5 mph100%30.18 "Hg0 mi
10:20 AM41 °FFog.3 mph100%30.18 "Hg0 mi
9:20 AM41 °FFog.3 mph100%30.15 "Hg0 mi
8:50 AM41 °FFog.1 mph100%30.15 "Hg0 mi
7:50 PM
Nov 21
45 °FFog.1 mph93%30.12 "Hg3 mi
7:20 PM45 °FFog.2 mph93%30.12 "Hg3 mi
6:50 PM45 °FFog.3 mph93%30.12 "Hg3 mi
6:20 PM45 °FPassing clouds.2 mph93%30.12 "Hg4 mi
Weather by CustomWeather, © 2014

See weather overviewHow to use our weather pages